www.pogodaiklimat.ru
ПОГОДА в Пунта Индио

Архив погоды в Пунта Индио (Аргентина)

Время
(UTC), дата
16 11.07
17 11.07
18 11.07
19 11.07
20 11.07
21 11.07
22 11.07
23 11.07
00 12.07
12 12.07
13 12.07
14 12.07
15 12.07
16 12.07
17 12.07
18 12.07
19 12.07
20 12.07
21 12.07
22 12.07
23 12.07
00 13.07
12 13.07
13 13.07
14 13.07
15 13.07
16 13.07
17 13.07
18 13.07
19 13.07
20 13.07
21 13.07
22 13.07
23 13.07
00 14.07
12 14.07
13 14.07
14 14.07
15 14.07
16 14.07
17 14.07
18 14.07
19 14.07
20 14.07
21 14.07
22 14.07
23 14.07
00 15.07
12 15.07
13 15.07
14 15.07
15 15.07
16 15.07
17 15.07
18 15.07
19 15.07
20 15.07
21 15.07
22 15.07
23 15.07
00 16.07
12 16.07
13 16.07
14 16.07
15 16.07
16 16.07
17 16.07
18 16.07
19 16.07
20 16.07
21 16.07
22 16.07
23 16.07
00 17.07
12 17.07
13 17.07
14 17.07
15 17.07
16 17.07
17 17.07
18 17.07
19 17.07
20 17.07
21 17.07
22 17.07
23 17.07
00 18.07
12 18.07
13 18.07
14 18.07
15 18.07
16 18.07
17 18.07
Ветер
(напр.,м/с)
Видим. Явления Облачность Т
(С)
Тd
(С)
f
(%)
Тe
(С)
Тes
(С)
Комфортность P
(гПа)
Po
(гПа)
Тmin
(С)
Tmax
(С)
R
(мм)
R24
(мм)
S
(см)
СЗ 3 7000 м мгла 1/0
[Ci fib]
+9.6 +2.6 62 +8 +14 1027.1 1024.4
З 2 7000 м мгла 1/0
[Ci fib]
+10.2 +2.9 60 +9 +15 1027.1 1024.4
З 3 9000 м ясно +10.5 +3.7 63 +9 +13 1027.2 1024.5
З 3 10 км ясно +11.0 +3.0 58 +10 +11 1027.2 1024.5
З 3 10 км ясно +10.8 +2.0 55 +9 +9 1027.3 1024.7
С 2 10 км ясно +7.5 +1.3 65 +6 +6 1028.0 1025.3
СЗ 2 10 км ясно +5.0 +2.0 81 +3 +3 1028.7 1026.0
С 2 10 км ясно +2.0 -0.8 82 -1 -1 1029.7 1027.1
З 3 10 км ясно +2.0 -0.8 82 -2 -2 1030.3 1027.6 -1.5 +11.0
З 3 10 км ясно +3.4 +0.3 80 0 +1 1034.4 1031.7
З 3 8000 м мгла ясно +4.4 +0.1 74 +1 +3 1035.0 1032.3
З 2 8000 м мгла ясно +7.0 +2.1 71 +5 +10 1035.6 1032.9
З 2 9000 м мгла ясно +10.2 +3.3 62 +9 +15 1035.2 1032.5
З 2 9000 м мгла ясно +11.8 +4.3 60 +11 +18 1034.5 1031.9
З 3 9000 м мгла ясно +13.6 +4.0 52 +13 +18 1034.0 1031.3
С 3 9000 м мгла ясно +13.8 +4.2 52 +13 +16 1033.9 1031.2
СВ 3 10 км ясно +12.4 +5.1 61 +11 +13 1034.0 1031.3
В 3 10 км ясно +11.2 +7.0 75 +10 +10 1034.3 1031.6
ЮВ 3 8000 м дымка ясно +8.2 +6.0 86 +6 +6 1034.5 1031.9
ЮВ 2 3000 м дымка ясно +4.8 +4.3 97 +2 +2 1035.0 1032.3
ЮВ 1 200 м туман местами ясно +3.8 +3.3 97 +3 +3 1034.9 1032.1
В 1 500 м туман местами ясно +3.2 +3.2 100 +3 +3 1034.9 1032.1 +3.2 +14.0
С 2 1000 м дымка ясно +0.2 -0.4 96 -3 -2 1034.7 1032.0 -2.0 +3.2
штиль 0 3000 м дымка ясно +5.2 +2.3 82 +4 +8 1035.0 1032.2
З 3 5000 м дымка ясно +8.4 +2.4 66 +6 +11 1035.1 1032.4
З 2 7000 м дымка ясно +10.6 +2.3 56 +10 +16 1034.7 1032.0
СЗ 3 10 км ясно +13.0 +4.3 55 +12 +18 1034.0 1031.3
ЮЗ 2 10 км ясно +14.0 +2.9 47 +14 +20 1033.2 1030.4
З 2 10 км ясно +13.8 +3.2 49 +13 +17 1032.5 1029.8
СВ 4 10 км ясно +12.0 +5.6 65 +10 +12 1032.4 1029.6
В 2 10 км ясно +11.0 +5.0 66 +10 +10 1032.4 1029.6
В 2 5000 м дымка ясно +8.4 +5.3 81 +7 +7 1032.4 1029.6
СВ 2 10 км ясно +5.4 +3.3 86 +3 +3 1032.4 1029.6
СВ 2 10 км ясно +4.4 +3.5 94 +1 +1 1032.0 1029.3
СВ 1 800 м местами туман поземный ясно +4.2 +3.7 97 +3 +3 1031.9 1029.2 +0.2 +14.0
ЮЗ 4 500 м туман, небо видно ясно -1.8 -4.1 84 -7 -7 1032.3 1029.5 -2.0 +4.2
нст 3 1000 м в посл. час туман туман ясно +3.0 -6.7 49 0 +3 1032.9 1030.2
нст 1 8000 м дымка {туман} ясно +8.4 +5.3 81 +8 +13 1032.9 1030.2
нст 2 8000 м дымка ясно +10.8 +4.7 66 +10 +17 1032.7 1030.0
нст 2 10 км ясно +12.2 +4.3 58 +12 +19 1031.9 1029.1
нст 1 10 км ясно +12.2 +4.3 58 +12 +19 1031.1 1028.6
нст 1 10 км ясно +12.6 +4.3 57 +13 +18 1031.0 1028.3
нст 3 10 км ясно +11.8 +3.9 58 +11 +12 1031.0 1028.3
нст 2 8000 м дымка ясно +10.2 +4.2 66 +9 +10 1031.2 1028.5
нст 3 8000 м дымка ясно +7.4 +3.4 76 +5 +5 1031.5 1028.8
нст 1 8000 м дымка ясно +5.8 +3.9 88 +5 +5 1032.0 1029.3
нст 2 8000 м дымка ясно +5.2 +3.7 90 +3 +3 1032.2 1029.5
нст 2 800 м туман местами ясно +4.4 +3.5 94 +2 +2 1032.3 1029.6 -2.0 +12.6
В 2 <100 м туман, небо видно ясно +3.8 +3.7 99 +1 +2 1033.4 1030.7 -0.5 +4.4
СВ 3 7000 м в посл. час туман туман 3/3 210 м
[Sc]
+8.8 +8.4 97 +6 +8 1033.8 1031.1
СВ 3 10 км 4/4 600 м
[Sc]
+11.2 +9.2 87 +9 +12 1034.4 1031.7
СВ 3 10 км 4/4 600 м
[Sc]
+11.8 +9.3 85 +10 +13 1033.4 1030.7
В 4 10 км 3/3 600 м
[Sc]
+12.2 +9.5 84 +10 +14 1033.1 1030.4
СВ 4 10 км ясно +13.2 +9.2 77 +11 +15 1032.0 1029.3
С 4 10 км 1/1 600 м
[Cu hum]
+13.8 +8.6 71 +12 +15 1031.8 1029.1
В 4 10 км ясно +12.8 +8.0 73 +11 +12 1031.4 1028.7
В 4 10 км ясно +11.8 +7.7 76 +10 +10 1031.2 1028.5
В 4 9000 м дымка ясно +8.2 +6.9 92 +5 +5 1031.2 1028.5
ЮВ 4 9000 м дымка ясно +7.8 +5.8 87 +5 +5 1031.0 1028.3
В 3 10 км ясно +5.8 +5.8 100 +3 +3 1030.9 1028.1
ЮВ 3 10 км ясно +5.8 +5.3 97 +2 +2 1030.7 1028.0 +3.8 +14.0
ЮВ 2 <100 м туман, небо видно ясно +2.0 +2.0 100 -2 -1 1029.8 1027.1 +2.0 +6.0
В 5 5000 м в посл. час туман туман ясно +9.5 +8.9 96 +6 +7 1029.2 1026.5
В 5 10 км ясно +11.6 +8.8 83 +9 +11 1029.8 1027.1
В 4 10 км 6/6 600 м +12.6 +9.8 83 +11 +14 1029.1 1026.5
СВ 3 10 км 8/5 600 м
[Sc Cs]
+13.6 +9.8 78 +12 +15 1028.7 1026.0
СВ 2 10 км 8/5 600 м
[Sc Cs]
+14.2 +10.0 76 +14 +17 1028.3 1025.6
В 2 10 км 8/1 600 м
[Sc Cs]
+15.4 +9.9 70 +15 +18 1027.6 1024.9
В 4 10 км 9/0
[Cs]
+15.2 +11.1 77 +14 +15 1026.9 1024.2
ЮВ 3 10 км 10/0
[Ac As Cs]
+13.0 +11.1 88 +12 +12 1026.6 1023.9
ЮВ 3 10 км 10/0 2000 м
[Ac As Cs]
+10.2 +8.8 91 +8 +8 1026.7 1024.0
В 5 10 км 10/0 2000 м
[Ac As Cs]
+9.6 +8.8 95 +6 +6 1026.0 1023.3
В 4 10 км 10/0
[Cs]
+10.2 +9.8 97 +8 +8 1026.8 1024.1
З 2 10 км 10/0 2000 м
[Ac As]
+10.4 +10.0 97 +9 +9 1027.6 1025.0 +2.0 +15.4
СЗ 3 2000 м дымка 1/1 600 м
[Sc]
+10.0 +9.6 97 +8 +8 1024.7 1022.0 +8.0 +11.0
З 4 7000 м дымка 1/1 600 м
[Sc]
+12.4 +10.0 85 +11 +12 1024.8 1022.1
З 4 8000 м дымка ясно +14.2 +10.5 78 +13 +16 1024.9 1022.3
З 5 10 км 1/0
[Ci fib]
+15.2 +11.5 79 +14 +18 1024.4 1021.7
СЗ 4 10 км 1/0
[Ci fib]
+16.0 +12.8 81 +15 +20 1023.4 1020.7
СЗ 5 10 км 3/1 600 м
[Sc Ci fib]
+17.6 +11.4 67 +17 +20 1022.3 1019.6
СЗ 4 10 км ясно +17.8 +10.4 62 +18 +21 1021.5 1018.8
СВ 3 9000 м 1/0
[Ci fib]
+17.8 +10.0 60 +18 +20 1020.9 1018.3
СВ 4 9000 м дымка 1/0
[Ci fib]
+17.2 +10.1 63 +17 +17 1021.1 1018.5
С 2 3000 м дымка 1/0
[Ci fib]
+11.8 +9.5 86 +11 +11 1021.1 1018.4
С 2 5000 м дымка 4/0
[Ci fib]
+9.8 +7.7 87 +8 +8 1021.3 1018.7
СВ 2 5000 м дымка 6/0
[Cs]
+8.8 +6.2 84 +7 +7 1021.1 1018.4
С 3 <100 м туман, небо видно 4/0
[Cs]
+8.4 +8.4 100 +5 +5 1020.9 1018.3 +8.4 +18.0
СВ 3 1500 м дымка 1/0
[As trans]
+9.0 +8.6 97 +6 +7 1020.8 1018.1 +4.5 +9.0
СВ 4 7000 м дымка 1/0
[As trans]
+11.6 +9.5 87 +9 +11 1021.0 1018.3
С 5 7000 м дымка ясно +13.2 +10.9 86 +11 +14 1021.4 1018.7
С 5 7000 м дымка 1/0
[Ci fib]
+14.6 +11.3 81 +13 +16 1020.9 1018.2
С 5 10 км ясно +15.2 +12.1 82 +14 +18 1019.7 1017.0
С 4 10 км 5/5 600 м
[Cu hum Ci fib]
+16.8 +12.1 74 +16 +18 1019.1 1016.4
Местоположение метеостанции Пунта Индио (Аргентина): широта -35.40 долгота -57.30 высота над уровнем моря 16 м.
В архиве по умолчанию представлена погода в Пунта Индио за последнюю неделю. Архивные данные за месяц целиком и за предыдущие месяцы, начиная с января 2011 года, Вы можете получить, выбрав интересующий диапазон дат из раскрывающегося списка и нажав кнопку "Найти!".
*Определитесь, кто Вы:
Внимание! Время в таблицах - всемирное. Для получения местного времени необходимо прибавить поправку, которая равна -3 ч.
Некоторые строки с данными для отдельных станций могут быть выделены курсивом. Это означает, что фактические данные отсутствуют по различным причинам, а приведенные значения являются расчетными модельными данными для данного пункта наблюдений.
Смотрите также архив погоды в соседних городах и на ближайших метеорологических станциях:
Партнеры нашего сайта:      
Пояснения к столбцам:
  • Ветер - указаны скорость ветра в м/с - средняя за 10 мин, порывы в срок и между сроками (в фигурных скобках) и направление, откуда дует ветер: С - северный,
  • СВ - северо-восточный, В - восточный, ЮВ - юго-восточный, Ю - южный, ЮЗ - юго-западный, З - западный, СЗ - северо-западный.
  • Видимость - горизонтальная дальность видимости в метрах или километрах. При видимости от 1 до 10 км при отсутствии осадков обычно наблюдается дымка, при ухудшении видимости до 1 км и менее - туман. В сухую погоду видимость может ухудшаться дымом, пылью или мглою.
  • Явления - указаны атмосферные явления, наблюдавшиеся в срок или в последний час перед сроком; фигурными скобками обозначены явления, наблюдавшиеся между сроками (за 1-3 часа до срока); квадратными скобками обозначены град или гололедные отложения с указанием их диаметра в мм.
  • Облачность - указаны через наклонную черту общая и нижняя облачность в баллах и высота нижней границы облаков в метрах; квадратными скобками обозначены формы облаков: Ci - перистые, Cs - перисто-слоистые, Cc - перисто-кучевые, Ac - высококучевые, As - высокослоистые, Sc - слоисто-кучевые, Ns - слоисто-дождевые, Cu - кучевые, Cb - кучево-дождевые. Подробнее классификацию облаков см. в Атласе облаков (PDF).
  • T - Температура воздуха - температура, измеренная на высоте 2 м над землей.
  • Td - Температура точки росы - температура, при понижении до которой содержащийся в воздухе водяной пар достигнет насыщения.
  • f - Относительная влажность воздуха - влажноcть воздуха, измеренная на высоте 2 м над землей.
  • Te - Эффективная температура - температура, которую ощущает одетый по сезону человек в тени. Характеристика душности погоды. При расчете учитывается влияние влажности воздуха и скорости ветра на теплоощущения человека.
  • Tes - Эффективная температура на солнце - температура, которую ощущает человек, с поправкой на солнечный нагрев. Характеристика знойности погоды. Зависит от высоты солнца над горизонтом, облачности и скорости ветра. Ночью, в пасмурную погоду, а также при ветре 12 м/с и более поправка равна нулю.
  • P - Атмосферное давление - приведенное к уровню моря атмосферное давление.
  • Po - Атмосферное давление - измеренное на уровне метеостанции атмосферное давление.
  • Tmin - Минимальная температура - минимум температуры воздуха на высоте 2 м над землей.
  • Tmax - Максимальная температура - максимум температуры воздуха на высоте 2 м над землей.
  • R - Количество осадков - Количество выпавших осадков за период времени, мм. При наведении курсора мыши на число - период времени, за который выпало указанное количество осадков.
  • R24 - Количество осадков - Количество выпавших осадков за 24 часа, мм.
  • S - Снежный покров - Высота снежного покрова, см. При наведении курсора мыши на число - состояние снежного покрова и степень покрытия местности в баллах.